Date String (YYYY-MM-DD hh:mm:ss) UTC,Instrument flags,Ambient pressure (hPa),Sample flow (lpm),Bypass flow (lpm),Sample temperature (°C),Ambient temperature (°C),ASC tube jacket temperature (°C),LED temperature (°C),Box temperature (°C),Sample RH (%),Span deviation,Mass concentration (μg/m³),Mass concentration (μg/m³),Mass concentration (μg/m³)
DateTimeUTC,F1_M11,P_M11,Q1_M11,Q2_M11,T1_M11,T2_M11,T3_M11,T4_M11,T5_M11,U1_M11,ZSPAN_M11,X0_M11,X2_M11,X1_M11
2022-04-14 07:00:00,,0823.0,5.01,0.00,22.6,22.7,00.0,31.5,24.5,09.5,0000.0,0007.50,0002.33,0001.24
2022-04-14 07:01:00,,0822.9,5.00,0.00,22.7,23.2,00.0,31.5,24.7,09.4,0000.0,0008.11,0002.30,0001.25
2022-04-14 07:02:00,,0822.8,5.00,0.00,22.8,23.1,00.0,31.6,24.7,09.4,0000.0,0008.37,0002.26,0001.24
2022-04-14 07:03:00,,0822.8,4.99,0.00,22.8,22.8,00.0,31.6,24.7,09.3,0000.0,0008.40,0002.31,0001.24
2022-04-14 07:04:00,,0822.7,5.01,0.00,22.7,22.6,00.0,31.6,24.7,09.3,0000.0,0008.34,0002.34,0001.24
2022-04-14 07:05:00,,0822.8,4.98,0.00,22.7,22.4,00.0,31.6,24.6,09.4,0000.0,0008.15,0002.39,0001.25
2022-04-14 07:06:00,,0822.9,5.00,0.00,22.7,22.2,00.0,31.6,24.6,09.4,0000.0,0007.95,0002.42,0001.26
2022-04-14 07:07:00,,0822.9,5.00,0.00,22.7,22.1,00.0,31.6,24.5,09.3,0000.0,0008.01,0002.47,0001.26
2022-04-14 07:08:00,,0822.9,5.01,0.00,22.7,22.0,00.0,31.6,24.5,09.3,0000.0,0009.09,0002.53,0001.27
2022-04-14 07:09:00,,0822.9,5.00,0.00,22.7,21.9,00.0,31.6,24.5,09.3,0000.0,0009.37,0002.58,0001.28
2022-04-14 07:10:00,,0823.0,4.99,0.00,22.7,21.9,00.0,31.6,24.5,09.3,0000.0,0009.21,0002.54,0001.28
2022-04-14 07:11:00,,0823.0,5.00,0.00,22.6,21.8,00.0,31.6,24.4,09.4,0000.0,0009.23,0002.60,0001.28
2022-04-14 07:12:00,,0822.9,5.02,0.00,22.5,21.6,00.0,31.6,24.2,09.4,0000.0,0008.79,0002.65,0001.29
2022-04-14 07:13:00,,0822.8,4.99,0.00,22.5,21.5,00.0,31.6,24.1,09.5,0000.0,0008.45,0002.67,0001.31
2022-04-14 07:14:00,,0822.7,4.99,0.00,22.4,21.4,00.0,31.5,24.1,09.4,0000.0,0008.53,0002.67,0001.31
2022-04-14 07:15:00,,0822.7,5.00,0.00,22.4,21.4,00.0,31.5,24.1,09.4,0000.0,0008.55,0002.64,0001.30
2022-04-14 07:16:00,,0822.7,5.00,0.00,22.4,21.4,00.0,31.5,24.1,09.5,0000.0,0008.42,0002.62,0001.29
2022-04-14 07:17:00,,0822.7,5.00,0.00,22.4,21.4,00.0,31.5,24.2,09.6,0000.0,0007.95,0002.61,0001.28
2022-04-14 07:18:00,,0822.6,5.00,0.00,22.4,21.4,00.0,31.5,24.2,09.6,0000.0,0007.84,0002.59,0001.31
2022-04-14 07:19:00,,0822.6,4.99,0.00,22.4,21.4,00.0,31.4,24.2,09.6,0000.0,0006.69,0002.53,0001.33
2022-04-14 07:20:00,,0822.6,5.00,0.00,22.4,21.4,00.0,31.4,24.2,09.4,0000.0,0005.90,0002.45,0001.32
2022-04-14 07:21:00,,0822.6,5.00,0.00,22.4,21.4,00.0,31.4,24.2,09.3,0000.0,0005.92,0002.47,0001.33
2022-04-14 07:22:00,,0822.6,5.00,0.00,22.4,21.4,00.0,31.4,24.2,08.6,0000.0,0005.84,0002.44,0001.32
2022-04-14 07:23:00,,0822.6,5.00,0.00,22.4,21.4,00.0,31.4,24.1,08.2,0000.0,0005.68,0002.32,0001.30
2022-04-14 07:24:00,,0822.6,5.00,0.00,22.3,21.4,00.0,31.4,24.1,08.1,0000.0,0006.63,0002.27,0001.29
2022-04-14 07:25:00,,0822.5,5.00,0.00,22.3,21.3,00.0,31.4,24.1,08.0,0000.0,0006.34,0002.15,0001.26
2022-04-14 07:26:00,,0822.6,5.00,0.00,22.3,21.3,00.0,31.4,24.1,07.8,0000.0,0006.07,0002.08,0001.25
2022-04-14 07:27:00,,0822.5,5.00,0.00,22.3,21.3,00.0,31.4,24.1,07.6,0000.0,0006.04,0002.03,0001.24
2022-04-14 07:28:00,,0822.6,5.00,0.00,22.3,21.4,00.0,31.3,24.1,07.5,0000.0,0006.48,0001.95,0001.22
2022-04-14 07:29:00,,0822.5,5.00,0.00,22.4,21.9,00.0,31.4,24.2,07.3,0000.0,0006.34,0001.94,0001.19
2022-04-14 07:30:00,,0822.5,5.00,0.00,22.5,22.8,00.0,31.4,24.4,07.1,0000.0,0005.99,0001.87,0001.15
2022-04-14 07:31:00,,0822.5,5.00,0.00,22.6,23.2,00.0,31.4,24.6,07.0,0000.0,0006.16,0001.81,0001.12
2022-04-14 07:32:00,,0822.4,5.00,0.00,22.7,23.0,00.0,31.5,24.6,07.0,0000.0,0005.95,0001.71,0001.08
2022-04-14 07:33:00,,0822.4,5.01,0.00,22.6,22.7,00.0,31.5,24.5,06.8,0000.0,0005.80,0001.64,0001.06
2022-04-14 07:34:00,,0822.4,5.00,0.00,22.6,22.5,00.0,31.5,24.4,06.8,0000.0,0005.70,0001.63,0001.05
2022-04-14 07:35:00,,0822.5,5.01,0.00,22.6,22.3,00.0,31.5,24.4,06.8,0000.0,0004.62,0001.57,0001.02
2022-04-14 07:36:00,,0822.4,5.00,0.00,22.6,22.1,00.0,31.5,24.3,06.7,0000.0,0004.23,0001.57,0001.01
2022-04-14 07:37:00,,0822.3,5.00,0.00,22.5,21.9,00.0,31.5,24.3,06.6,0000.0,0004.23,0001.53,0000.99
2022-04-14 07:38:00,,0822.3,5.00,0.00,22.5,21.8,00.0,31.5,24.2,06.6,0000.0,0004.25,0001.53,0000.98
2022-04-14 07:39:00,,0822.3,5.00,0.00,22.5,21.7,00.0,31.5,24.2,06.8,0000.0,0003.79,0001.51,0000.97
2022-04-14 07:40:00,,0822.4,5.00,0.00,22.5,21.7,00.0,31.5,24.2,07.2,0000.0,0003.56,0001.47,0000.96
2022-04-14 07:41:00,,0822.4,5.00,0.00,22.5,21.6,00.0,31.5,24.2,07.5,0000.0,0003.75,0001.51,0000.97
2022-04-14 07:42:00,,0822.2,4.99,0.00,22.4,21.5,00.0,31.5,24.2,07.7,0000.0,0003.30,0001.62,0000.98
2022-04-14 07:43:00,,0822.2,4.99,0.00,22.4,21.5,00.0,31.4,24.2,07.4,0000.0,0003.46,0001.66,0000.99
2022-04-14 07:44:00,,0822.3,5.00,0.00,22.4,21.5,00.0,31.4,24.2,06.9,0000.0,0003.49,0001.69,0001.00
2022-04-14 07:45:00,,0822.3,5.00,0.00,22.4,21.4,00.0,31.4,24.1,07.5,0000.0,0003.47,0001.68,0000.99
2022-04-14 07:46:00,,0822.3,4.99,0.00,22.4,21.4,00.0,31.4,24.0,07.5,0000.0,0003.47,0001.68,0001.00
2022-04-14 07:47:00,,0822.4,5.00,0.00,22.4,21.3,00.0,31.4,24.0,06.5,0000.0,0003.43,0001.69,0001.02
2022-04-14 07:48:00,,0822.4,5.00,0.00,22.3,21.2,00.0,31.4,23.9,06.3,0000.0,0003.41,0001.72,0001.04
2022-04-14 07:49:00,,0822.4,5.02,0.00,22.3,21.2,00.0,31.4,23.8,06.8,0000.0,0003.28,0001.72,0001.04
2022-04-14 07:50:00,,0822.4,5.00,0.00,22.2,21.3,00.0,31.4,23.9,06.9,0000.0,0003.40,0001.78,0001.04
2022-04-14 07:51:00,,0822.5,4.99,0.00,22.3,22.0,00.0,31.4,24.1,07.3,0000.0,0004.24,0001.78,0001.04
2022-04-14 07:52:00,,0822.4,5.00,0.00,22.5,22.8,00.0,31.4,24.4,07.3,0000.0,0004.13,0001.70,0001.03
2022-04-14 07:53:00,,0822.3,5.00,0.00,22.6,23.2,00.0,31.5,24.5,07.3,0000.0,0003.97,0001.62,0001.02
2022-04-14 07:54:00,,0822.3,5.00,0.00,22.6,22.9,00.0,31.5,24.5,06.6,0000.0,0003.94,0001.64,0001.02
2022-04-14 07:55:00,,0822.4,5.01,0.00,22.6,22.6,00.0,31.5,24.4,06.8,0000.0,0003.97,0001.65,0001.04
2022-04-14 07:56:00,,0822.3,5.00,0.00,22.6,22.4,00.0,31.5,24.4,07.1,0000.0,0004.01,0001.68,0001.05
2022-04-14 07:57:00,,0822.3,5.00,0.00,22.6,22.2,00.0,31.5,24.3,06.8,0000.0,0004.15,0001.69,0001.06
2022-04-14 07:58:00,,0822.3,5.00,0.00,22.5,21.9,00.0,31.5,24.2,06.8,0000.0,0005.40,0001.75,0001.05
2022-04-14 07:59:00,,0822.3,5.00,0.00,22.4,21.7,00.0,31.5,24.1,06.3,0000.0,0005.55,0001.77,0001.06
